Regional Weather Roundup
Issued by NWS

Home | Current Version | Previous Version | Text Only | Print | Product List | Glossary Off
Versions: 1 2 3 4 5 6 7 8 9 10 11 12 13 14 15 16 17 18 19 20 21 22 23 24 25 26 27 28 29 30 31 32 33 34 35 36 37 38 39 40 41 42 43 44 45 46 47 48 49 50

593
ASUS43 KIND 231709
RWRIN

WEATHER ROUNDUP FOR INDIANA
NATIONAL WEATHER SERVICE INDIANAPOLIS IN
1200 PM EST THU FEB 23 2017

NOTE: "FAIR" INDICATES FEW OR NO CLOUDS BELOW 12,000 FEET WITH NO
SIGNIFICANT WEATHER AND/OR OBSTRUCTIONS TO VISIBILITY.

* - STATION DOES NOT REPORT WEATHER SUCH AS PRECIPITATION OR FOG.

+ - STATION NOT QUALITY CONTROLLED BY THE NATIONAL WEATHER SERVICE.
    USE DATA WITH CAUTION...ESPECIALLY DEWPOINT AND RELATIVE
    HUMIDITY OBSERVATIONS.

INZ001>003-010>013-019-020-231800-
NORTHWEST INDIANA

CITY           SKY/WX    TMP DP  RH WIND       PRES   REMARKS
GARY /AIRPORT/ CLOUDY    48  39  71 N17       29.82R
KNOX *+        MOSUNNY   55  28  35 N10       29.77F
LA PORTE +     PTSUNNY   49  43  80 N9        29.80S
MICHIGAN CITY+ CLOUDY    45  41  87 N10       29.82R
MONTICELLO +   SUNNY     62  48  61 NE5       29.74F
RENSSELAER +   CLOUDY    59  50  72 NE8       29.76S
VALPARAISO     MOSUNNY   53  44  71 N10       29.79S

$$

LMZ046-743>745-231800-
SOUTHERN LAKE MICHIGAN

STATION/POSITION TIME  TEMP    WIND        PRES    WAVE
                       AIR SEA DIR/SP/G            HT
                 (UTC) (F)     (DEG/KT/KT) (MB)    (FT)
BURNS HARBOR     1640   41      50/  6/  7 1010.2S
MICHIGAN CITY    1640   39      20/  6/  7   N/A

$$

INZ004-005-014>016-021>024-231800-
NORTH CENTRAL INDIANA

CITY           SKY/WX    TMP DP  RH WIND       PRES   REMARKS
ELKHART        PTSUNNY   54  45  71 N8        29.79R
GOSHEN         SUNNY     58  46  64 W7        29.78R
LOGANSPORT +   SUNNY     61  50  67 CALM      29.77F
PERU/GRISSOM   SUNNY     63  50  63 S5        29.75F
ROCHESTER +    SUNNY     64  46  52 SE5       29.77S
SOUTH BEND     PTSUNNY   50  43  77 N10       29.79S
WARSAW +       SUNNY     59  48  67 NW6       29.77S

$$

INZ006>009-017-018-025>027-231800-
NORTHEAST INDIANA

CITY           SKY/WX    TMP DP  RH WIND       PRES   REMARKS
ANGOLA *+      SUNNY     61  50  67 W5        29.76R
AUBURN +       SUNNY     61  48  63 CALM      29.77R
FORT WAYNE     PTSUNNY   62  50  64 SW8       29.76F
HUNTINGTON +   SUNNY     61  50  65 SW7       29.76F
KENDALLVILLE + SUNNY     59  49  68 W7        29.77R

$$

INZ028-029-035-036-043>045-051>053-231800-
WEST CENTRAL INDIANA

CITY           SKY/WX    TMP DP  RH WIND       PRES   REMARKS
LAFAYETTE      MOSUNNY   61  53  75 S7        29.74F
TERRE HAUTE    PTSUNNY   64  55  72 S7        29.77S

$$

INZ030>032-037>040-046>048-054>057-064-065-231800-
CENTRAL INDIANA

CITY           SKY/WX    TMP DP  RH WIND       PRES   REMARKS
ANDERSON       CLOUDY    59  55  88 SW6       29.80
CP ATTERBURY + PTSUNNY   64  54  68 SW10      29.78F
COLUMBUS       CLOUDY    66  59  77 SW5       29.79S
FRANKFORT +    CLOUDY    62  55  79 SW7       29.78F
GREENWOOD *+   MOSUNNY   64  57  77 CALM      29.79F
INDIANAPOLIS   PTSUNNY   63  56  78 S10       29.77F
-EAGLE CREEK   CLOUDY    61  55  81 S5        29.77F
KOKOMO +       SUNNY     63  52  67 S5        29.77F
MARION +       CLOUDY    59  52  77 S12       29.78F
MT COMFORT *+  CLOUDY    61  55  82 SW5       29.78F
SHELBYVILLE    PTSUNNY   65  56  72 SW7       29.78S
ZIONSVILLE +   CLOUDY    58  55  91 SW5       29.78F FOG

$$

INZ033-034-041-042-049-050-058-059-231800-
EAST CENTRAL INDIANA

CITY           SKY/WX    TMP DP  RH WIND       PRES   REMARKS
MUNCIE         CLOUDY    61  55  81 SW7       29.78F

$$

INZ060-061-067>069-081>083-085>088-231800-
SOUTHWEST INDIANA

CITY           SKY/WX    TMP DP  RH WIND       PRES   REMARKS
EVANSVILLE     PTSUNNY   68  56  65 S9G20     29.78F
HUNTINGBURG *+ CLOUDY    64  57  78 S8        29.80S
WASHINGTON +   CLOUDY    67  58  73 S12       29.78F

$$

INZ062-063-066-070>080-084-089>092-231800-
SOUTH CENTRAL AND SOUTHEAST INDIANA

CITY           SKY/WX    TMP DP  RH WIND       PRES   REMARKS
BEDFORD +      PTSUNNY   68  55  64 SW10G16   29.79R
BLOOMINGTON    PTSUNNY   69  54  58 SW9       29.77F
MADISON *+     MOSUNNY   68  55  64 SW9       29.83S
NORTH VERNON + MOSUNNY   66  59  77 S7        29.81S
SEYMOUR +      SUNNY     72  57  60 SW14      29.79S

$$





USA.gov is the U.S. government's official web portal to all federal, state and local government web resources and services.